Year,Month,Day,Hour,Minute,Value (Times are PST for temperature in C)
2014,06,07,00,00,12.00
2014,06,07,00,01,12.00
2014,06,07,00,02,12.00
2014,06,07,00,03,12.00
2014,06,07,00,04,12.00
2014,06,07,00,05,12.00
2014,06,07,00,06,11.90
2014,06,07,00,07,11.90
2014,06,07,00,08,11.90
2014,06,07,00,09,11.90
2014,06,07,00,10,11.90
2014,06,07,00,11,11.90
2014,06,07,00,12,11.90
2014,06,07,00,13,11.90
2014,06,07,00,14,11.90
2014,06,07,00,15,11.90
2014,06,07,00,16,11.90
2014,06,07,00,17,11.90
2014,06,07,00,18,11.90
2014,06,07,00,19,11.90
2014,06,07,00,20,11.90
2014,06,07,00,21,11.90
2014,06,07,00,22,11.90
2014,06,07,00,23,11.90
2014,06,07,00,24,11.90
2014,06,07,00,25,11.90
2014,06,07,00,26,11.90
2014,06,07,00,27,11.90
2014,06,07,00,28,11.90
2014,06,07,00,29,11.90
2014,06,07,00,30,11.90
2014,06,07,00,31,11.90
2014,06,07,00,32,11.90
2014,06,07,00,33,11.90
2014,06,07,00,34,11.90
2014,06,07,00,35,11.90
2014,06,07,00,36,11.90
2014,06,07,00,37,11.80
2014,06,07,00,38,11.80
2014,06,07,00,39,11.80
2014,06,07,00,40,11.80
2014,06,07,00,41,11.80
2014,06,07,00,42,11.80
2014,06,07,00,43,11.80
2014,06,07,00,44,11.80
2014,06,07,00,45,11.80
2014,06,07,00,46,11.80
2014,06,07,00,47,11.80
2014,06,07,00,48,11.80
2014,06,07,00,49,11.80
2014,06,07,00,50,11.80
2014,06,07,00,51,11.80
2014,06,07,00,52,11.70
2014,06,07,00,53,11.70
2014,06,07,00,54,11.70
2014,06,07,00,55,11.70
2014,06,07,00,56,11.70
2014,06,07,00,57,11.70
2014,06,07,00,58,11.70
2014,06,07,00,59,11.70
2014,06,07,01,00,11.70
2014,06,07,01,01,11.70
2014,06,07,01,02,11.70
2014,06,07,01,03,11.70
2014,06,07,01,04,11.70
2014,06,07,01,05,11.70
2014,06,07,01,06,11.70
2014,06,07,01,07,11.70
2014,06,07,01,08,11.70
2014,06,07,01,09,11.70
2014,06,07,01,10,11.70
2014,06,07,01,11,11.60
2014,06,07,01,12,11.60
2014,06,07,01,13,11.60
2014,06,07,01,14,11.60
2014,06,07,01,15,11.60
2014,06,07,01,16,11.60
2014,06,07,01,17,11.60
2014,06,07,01,18,11.60
2014,06,07,01,19,11.60
2014,06,07,01,20,11.60
2014,06,07,01,21,11.60
2014,06,07,01,22,11.60
2014,06,07,01,23,11.60
2014,06,07,01,24,11.60
2014,06,07,01,25,11.60
2014,06,07,01,26,11.60
2014,06,07,01,27,11.60
2014,06,07,01,28,11.60
2014,06,07,01,29,11.60
2014,06,07,01,30,11.60
2014,06,07,01,31,11.60
2014,06,07,01,32,11.60
2014,06,07,01,33,11.60
2014,06,07,01,34,11.60
2014,06,07,01,35,11.60
2014,06,07,01,36,11.60
2014,06,07,01,37,11.60
2014,06,07,01,38,11.60
2014,06,07,01,39,11.60
2014,06,07,01,40,11.60
2014,06,07,01,41,11.60
2014,06,07,01,42,11.60
2014,06,07,01,43,11.60
2014,06,07,01,44,11.60
2014,06,07,01,45,11.60
2014,06,07,01,46,11.60
2014,06,07,01,47,11.60
2014,06,07,01,48,11.50
2014,06,07,01,49,11.50
2014,06,07,01,50,11.50
2014,06,07,01,51,11.50
2014,06,07,01,52,11.50
2014,06,07,01,53,11.50
2014,06,07,01,54,11.50
2014,06,07,01,55,11.50
2014,06,07,01,56,11.50
2014,06,07,01,57,11.50
2014,06,07,01,58,11.50
2014,06,07,01,59,11.50
2014,06,07,02,00,11.50
2014,06,07,02,01,11.50
2014,06,07,02,02,11.50
2014,06,07,02,03,11.50
2014,06,07,02,04,11.50
2014,06,07,02,05,11.50
2014,06,07,02,06,11.40
2014,06,07,02,07,11.40
2014,06,07,02,08,11.40
2014,06,07,02,09,11.40
2014,06,07,02,10,11.40
2014,06,07,02,11,11.40
2014,06,07,02,12,11.40
2014,06,07,02,13,11.40
2014,06,07,02,14,11.40
2014,06,07,02,15,11.40
2014,06,07,02,16,11.30
2014,06,07,02,17,11.30
2014,06,07,02,18,11.30
2014,06,07,02,19,11.30
2014,06,07,02,20,11.30
2014,06,07,02,21,11.30
2014,06,07,02,22,11.30
2014,06,07,02,23,11.30
2014,06,07,02,24,11.30
2014,06,07,02,25,11.30
2014,06,07,02,26,11.30
2014,06,07,02,27,11.30
2014,06,07,02,28,11.30
2014,06,07,02,29,11.30
2014,06,07,02,30,11.30
2014,06,07,02,31,11.30
2014,06,07,02,32,11.30
2014,06,07,02,33,11.30
2014,06,07,02,34,11.30
2014,06,07,02,35,11.30
2014,06,07,02,36,11.30
2014,06,07,02,37,11.30
2014,06,07,02,38,11.30
2014,06,07,02,39,11.30
2014,06,07,02,40,11.30
2014,06,07,02,41,11.30
2014,06,07,02,42,11.20
2014,06,07,02,43,11.20
2014,06,07,02,44,11.20
2014,06,07,02,45,11.20
2014,06,07,02,46,11.20
2014,06,07,02,47,11.20
2014,06,07,02,48,11.20
2014,06,07,02,49,11.20
2014,06,07,02,50,11.20
2014,06,07,02,51,11.20
2014,06,07,02,52,11.20
2014,06,07,02,53,11.20
2014,06,07,02,54,11.20
2014,06,07,02,55,11.20
2014,06,07,02,56,11.10
2014,06,07,02,57,11.10
2014,06,07,02,58,11.10
2014,06,07,02,59,11.10
2014,06,07,03,00,11.10
2014,06,07,03,01,11.10
2014,06,07,03,02,11.10
2014,06,07,03,03,11.10
2014,06,07,03,04,11.10
2014,06,07,03,05,11.10
2014,06,07,03,06,11.10
2014,06,07,03,07,11.10
2014,06,07,03,08,11.10
2014,06,07,03,09,11.10
2014,06,07,03,10,11.10
2014,06,07,03,11,11.10
2014,06,07,03,12,11.10
2014,06,07,03,13,11.10
2014,06,07,03,14,11.10
2014,06,07,03,15,11.10
2014,06,07,03,16,11.10
2014,06,07,03,17,11.10
2014,06,07,03,18,11.10
2014,06,07,03,19,11.10
2014,06,07,03,20,11.10
2014,06,07,03,21,11.10
2014,06,07,03,22,11.10
2014,06,07,03,23,11.10
2014,06,07,03,24,11.10
2014,06,07,03,25,11.10
2014,06,07,03,26,11.10
2014,06,07,03,27,11.10
2014,06,07,03,28,11.10
2014,06,07,03,29,11.10
2014,06,07,03,30,11.10
2014,06,07,03,31,11.20
2014,06,07,03,32,11.20
2014,06,07,03,33,11.20
2014,06,07,03,34,11.20
2014,06,07,03,35,11.20
2014,06,07,03,36,11.20
2014,06,07,03,37,11.20
2014,06,07,03,38,11.20
2014,06,07,03,39,11.30
2014,06,07,03,40,11.30
2014,06,07,03,41,11.30
2014,06,07,03,42,11.30
2014,06,07,03,43,11.30
2014,06,07,03,44,11.30
2014,06,07,03,45,11.30
2014,06,07,03,46,11.30
2014,06,07,03,47,11.40
2014,06,07,03,48,11.40
2014,06,07,03,49,11.40
2014,06,07,03,50,11.40
2014,06,07,03,51,11.40
2014,06,07,03,52,11.40
2014,06,07,03,53,11.40
2014,06,07,03,54,11.40
2014,06,07,03,55,11.40
2014,06,07,03,56,11.40
2014,06,07,03,57,11.40
2014,06,07,03,58,11.40
2014,06,07,03,59,11.40
2014,06,07,04,00,11.40
2014,06,07,04,01,11.40
2014,06,07,04,02,11.50
2014,06,07,04,03,11.50
2014,06,07,04,04,11.50
2014,06,07,04,05,11.50
2014,06,07,04,06,11.50
2014,06,07,04,07,11.50
2014,06,07,04,08,11.50
2014,06,07,04,09,11.50
2014,06,07,04,10,11.50
2014,06,07,04,11,11.50
2014,06,07,04,12,11.50
2014,06,07,04,13,11.50
2014,06,07,04,14,11.50
2014,06,07,04,15,11.60
2014,06,07,04,16,11.60
2014,06,07,04,17,11.60
2014,06,07,04,18,11.60
2014,06,07,04,19,11.60
2014,06,07,04,20,11.60
2014,06,07,04,21,11.60
2014,06,07,04,22,11.60
2014,06,07,04,23,11.60
2014,06,07,04,24,11.60
2014,06,07,04,25,11.60
2014,06,07,04,26,11.60
2014,06,07,04,27,11.60
2014,06,07,04,28,11.60
2014,06,07,04,29,11.60
2014,06,07,04,30,11.60
2014,06,07,04,31,11.60
2014,06,07,04,32,11.60
2014,06,07,04,33,11.60
2014,06,07,04,34,11.60
2014,06,07,04,35,11.60
2014,06,07,04,36,11.60
2014,06,07,04,37,11.60
2014,06,07,04,38,11.60
2014,06,07,04,39,11.60
2014,06,07,04,40,11.60
2014,06,07,04,41,11.60
2014,06,07,04,42,11.60
2014,06,07,04,43,11.60
2014,06,07,04,44,11.60
2014,06,07,04,45,11.60
2014,06,07,04,46,11.60
2014,06,07,04,47,11.60
2014,06,07,04,48,11.60
2014,06,07,04,49,11.60
2014,06,07,04,50,11.60
2014,06,07,04,51,11.60
2014,06,07,04,52,11.60
2014,06,07,04,53,11.60
2014,06,07,04,54,11.60
2014,06,07,04,55,11.60
2014,06,07,04,56,11.60
2014,06,07,04,57,11.60
2014,06,07,04,58,11.60
2014,06,07,04,59,11.60
2014,06,07,05,00,11.60
2014,06,07,05,01,11.50
2014,06,07,05,02,11.50
2014,06,07,05,03,11.50
2014,06,07,05,04,11.50
2014,06,07,05,05,11.50
2014,06,07,05,06,11.50
2014,06,07,05,07,11.50
2014,06,07,05,08,11.50
2014,06,07,05,09,11.50
2014,06,07,05,10,11.50
2014,06,07,05,11,11.50
2014,06,07,05,12,11.40
2014,06,07,05,13,11.40
2014,06,07,05,14,11.40
2014,06,07,05,15,11.40
2014,06,07,05,16,11.40
2014,06,07,05,17,11.40
2014,06,07,05,18,11.40
2014,06,07,05,19,11.40
2014,06,07,05,20,11.40
2014,06,07,05,21,11.40
2014,06,07,05,22,11.40
2014,06,07,05,23,11.40
2014,06,07,05,24,11.40
2014,06,07,05,25,11.40
2014,06,07,05,26,11.40
2014,06,07,05,27,11.40
2014,06,07,05,28,11.40
2014,06,07,05,29,11.40
2014,06,07,05,30,11.40
2014,06,07,05,31,11.40
2014,06,07,05,32,11.40
2014,06,07,05,33,11.40
2014,06,07,05,34,11.40
2014,06,07,05,35,11.40
2014,06,07,05,36,11.40
2014,06,07,05,37,11.40
2014,06,07,05,38,11.40
2014,06,07,05,39,11.40
2014,06,07,05,40,11.40
2014,06,07,05,41,11.40
2014,06,07,05,42,11.40
2014,06,07,05,43,11.40
2014,06,07,05,44,11.50
2014,06,07,05,45,11.50
2014,06,07,05,46,11.50
2014,06,07,05,47,11.50
2014,06,07,05,48,11.50
2014,06,07,05,49,11.50
2014,06,07,05,50,11.50
2014,06,07,05,51,11.50
2014,06,07,05,52,11.50
2014,06,07,05,53,11.50
2014,06,07,05,54,11.50
2014,06,07,05,55,11.50
2014,06,07,05,56,11.50
2014,06,07,05,57,11.50
2014,06,07,05,58,11.50
2014,06,07,05,59,11.50
2014,06,07,06,00,11.50
2014,06,07,06,01,11.50
2014,06,07,06,02,11.50
2014,06,07,06,03,11.50
2014,06,07,06,04,11.50
2014,06,07,06,05,11.50
2014,06,07,06,06,11.50
2014,06,07,06,07,11.50
2014,06,07,06,08,11.50
2014,06,07,06,09,11.50
2014,06,07,06,10,11.50
2014,06,07,06,11,11.50
2014,06,07,06,12,11.50
2014,06,07,06,13,11.50
2014,06,07,06,14,11.50
2014,06,07,06,15,11.50
2014,06,07,06,16,11.50
2014,06,07,06,17,11.50
2014,06,07,06,18,11.50
2014,06,07,06,19,11.50
2014,06,07,06,20,11.50
2014,06,07,06,21,11.50
2014,06,07,06,22,11.50
2014,06,07,06,23,11.40
2014,06,07,06,24,11.40
2014,06,07,06,25,11.40
2014,06,07,06,26,11.40
2014,06,07,06,27,11.40
2014,06,07,06,28,11.40
2014,06,07,06,29,11.40
2014,06,07,06,30,11.40
2014,06,07,06,31,11.40
2014,06,07,06,32,11.40
2014,06,07,06,33,11.40
2014,06,07,06,34,11.40
2014,06,07,06,35,11.40
2014,06,07,06,36,11.40
2014,06,07,06,37,11.40
2014,06,07,06,38,11.40
2014,06,07,06,39,11.40
2014,06,07,06,40,11.40
2014,06,07,06,41,11.40
2014,06,07,06,42,11.40
2014,06,07,06,43,11.40
2014,06,07,06,44,11.40
2014,06,07,06,45,11.40
2014,06,07,06,46,11.40
2014,06,07,06,47,11.40
2014,06,07,06,48,11.40
2014,06,07,06,49,11.40
2014,06,07,06,50,11.40
2014,06,07,06,51,11.40
2014,06,07,06,52,11.40
2014,06,07,06,53,11.40
2014,06,07,06,54,11.40
2014,06,07,06,55,11.40
2014,06,07,06,56,11.40
2014,06,07,06,57,11.40
2014,06,07,06,58,11.40
2014,06,07,06,59,11.40
2014,06,07,07,00,11.40
2014,06,07,07,01,11.40
2014,06,07,07,02,11.40
2014,06,07,07,03,11.40
2014,06,07,07,04,11.50
2014,06,07,07,05,11.50
2014,06,07,07,06,11.50
2014,06,07,07,07,11.50
2014,06,07,07,08,11.50
2014,06,07,07,09,11.50
2014,06,07,07,10,11.50
2014,06,07,07,11,11.50
2014,06,07,07,12,11.60
2014,06,07,07,13,11.60
2014,06,07,07,14,11.60
2014,06,07,07,15,11.60
2014,06,07,07,16,11.60
2014,06,07,07,17,11.60
2014,06,07,07,18,11.70
2014,06,07,07,19,11.70
2014,06,07,07,20,11.70
2014,06,07,07,21,11.70
2014,06,07,07,22,11.70
2014,06,07,07,23,11.70
2014,06,07,07,24,11.80
2014,06,07,07,25,11.80
2014,06,07,07,26,11.80
2014,06,07,07,27,11.80
2014,06,07,07,28,11.80
2014,06,07,07,29,11.80
2014,06,07,07,30,11.90
2014,06,07,07,31,11.90
2014,06,07,07,32,11.90
2014,06,07,07,33,11.90
2014,06,07,07,34,12.00
2014,06,07,07,35,12.00
2014,06,07,07,36,12.10
2014,06,07,07,37,12.10
2014,06,07,07,38,12.10
2014,06,07,07,39,12.20
2014,06,07,07,40,12.20
2014,06,07,07,41,12.20
2014,06,07,07,42,12.30
2014,06,07,07,43,12.30
2014,06,07,07,44,12.30
2014,06,07,07,45,12.40
2014,06,07,07,46,12.40
2014,06,07,07,47,12.40
2014,06,07,07,48,12.50
2014,06,07,07,49,12.60
2014,06,07,07,50,12.60
2014,06,07,07,51,12.60
2014,06,07,07,52,12.70
2014,06,07,07,53,12.70
2014,06,07,07,54,12.70
2014,06,07,07,55,12.80
2014,06,07,07,56,12.80
2014,06,07,07,57,12.80
2014,06,07,07,58,12.90
2014,06,07,07,59,12.90
2014,06,07,08,00,12.90
2014,06,07,08,01,13.00
2014,06,07,08,02,13.00
2014,06,07,08,03,13.10
2014,06,07,08,04,13.10
2014,06,07,08,05,13.10
2014,06,07,08,06,13.10
2014,06,07,08,07,13.20
2014,06,07,08,08,13.20
2014,06,07,08,09,13.20
2014,06,07,08,10,13.20
2014,06,07,08,11,13.30
2014,06,07,08,12,13.30
2014,06,07,08,13,13.30
2014,06,07,08,14,13.40
2014,06,07,08,15,13.40
2014,06,07,08,16,13.40
2014,06,07,08,17,13.40
2014,06,07,08,18,13.50
2014,06,07,08,19,13.50
2014,06,07,08,20,13.60
2014,06,07,08,21,13.60
2014,06,07,08,22,13.60
2014,06,07,08,23,13.70
2014,06,07,08,24,13.70
2014,06,07,08,25,13.70
2014,06,07,08,26,13.80
2014,06,07,08,27,13.80
2014,06,07,08,28,13.90
2014,06,07,08,29,13.90
2014,06,07,08,30,14.00
2014,06,07,08,31,14.00
2014,06,07,08,32,14.10
2014,06,07,08,33,14.10
2014,06,07,08,34,14.10
2014,06,07,08,35,14.20
2014,06,07,08,36,14.20
2014,06,07,08,37,14.30
2014,06,07,08,38,14.30
2014,06,07,08,39,14.30
2014,06,07,08,40,14.40
2014,06,07,08,41,14.50
2014,06,07,08,42,14.50
2014,06,07,08,43,14.60
2014,06,07,08,44,14.60
2014,06,07,08,45,14.70
2014,06,07,08,46,14.80
2014,06,07,08,47,14.80
2014,06,07,08,48,14.90
2014,06,07,08,49,14.90
2014,06,07,08,50,15.00
2014,06,07,08,51,15.00
2014,06,07,08,52,15.10
2014,06,07,08,53,15.10
2014,06,07,08,54,15.20
2014,06,07,08,55,15.20
2014,06,07,08,56,15.30
2014,06,07,08,57,15.30
2014,06,07,08,58,15.40
2014,06,07,08,59,15.50
2014,06,07,09,00,15.50
2014,06,07,09,01,15.60
2014,06,07,09,02,15.60
2014,06,07,09,03,15.60
2014,06,07,09,04,15.70
2014,06,07,09,05,15.70
2014,06,07,09,06,15.80
2014,06,07,09,07,15.80
2014,06,07,09,08,15.80
2014,06,07,09,09,15.90
2014,06,07,09,10,16.00
2014,06,07,09,11,16.10
2014,06,07,09,12,16.20
2014,06,07,09,13,16.20
2014,06,07,09,14,16.30
2014,06,07,09,15,16.40
2014,06,07,09,16,16.40
2014,06,07,09,17,16.50
2014,06,07,09,18,16.60
2014,06,07,09,19,16.60
2014,06,07,09,20,16.70
2014,06,07,09,21,16.70
2014,06,07,09,22,16.80
2014,06,07,09,23,16.80
2014,06,07,09,24,16.90
2014,06,07,09,25,16.90
2014,06,07,09,26,17.00
2014,06,07,09,27,17.10
2014,06,07,09,28,17.20
2014,06,07,09,29,17.20
2014,06,07,09,30,17.20
2014,06,07,09,31,17.20
2014,06,07,09,32,17.30
2014,06,07,09,33,17.30
2014,06,07,09,34,17.30
2014,06,07,09,35,17.40
2014,06,07,09,36,17.40
2014,06,07,09,37,17.40
2014,06,07,09,38,17.30
2014,06,07,09,39,17.30
2014,06,07,09,40,17.30
2014,06,07,09,41,17.30
2014,06,07,09,42,17.30
2014,06,07,09,43,17.30
2014,06,07,09,44,17.30
2014,06,07,09,45,17.30
2014,06,07,09,46,17.40
2014,06,07,09,47,17.50
2014,06,07,09,48,17.50
2014,06,07,09,49,17.60
2014,06,07,09,50,17.60
2014,06,07,09,51,17.70
2014,06,07,09,52,17.70
2014,06,07,09,53,17.80
2014,06,07,09,54,17.80
2014,06,07,09,55,17.80
2014,06,07,09,56,17.90
2014,06,07,09,57,17.90
2014,06,07,09,58,17.90
2014,06,07,09,59,17.90
2014,06,07,10,00,18.00
2014,06,07,10,01,18.00
2014,06,07,10,02,18.10
2014,06,07,10,03,18.10
2014,06,07,10,04,18.10
2014,06,07,10,05,18.10
2014,06,07,10,06,18.10
2014,06,07,10,07,18.10
2014,06,07,10,08,18.10
2014,06,07,10,09,18.10
2014,06,07,10,10,18.20
2014,06,07,10,11,18.20
2014,06,07,10,12,18.30
2014,06,07,10,13,18.40
2014,06,07,10,14,18.50
2014,06,07,10,15,18.60
2014,06,07,10,16,18.70
2014,06,07,10,17,18.80
2014,06,07,10,18,18.80
2014,06,07,10,19,18.90
2014,06,07,10,20,18.90
2014,06,07,10,21,19.00
2014,06,07,10,22,19.00
2014,06,07,10,23,19.10
2014,06,07,10,24,19.10
2014,06,07,10,25,19.10
2014,06,07,10,26,19.20
2014,06,07,10,27,19.20
2014,06,07,10,28,19.30
2014,06,07,10,29,19.40
2014,06,07,10,30,19.50
2014,06,07,10,31,19.50
2014,06,07,10,32,19.60
2014,06,07,10,33,19.70
2014,06,07,10,34,19.80
2014,06,07,10,35,19.90
2014,06,07,10,36,20.00
2014,06,07,10,37,20.00
2014,06,07,10,38,20.10
2014,06,07,10,39,20.10
2014,06,07,10,40,20.20
2014,06,07,10,41,20.20
2014,06,07,10,42,20.20
2014,06,07,10,43,20.20
2014,06,07,10,44,20.30
2014,06,07,10,45,20.30
2014,06,07,10,46,20.30
2014,06,07,10,47,20.40
2014,06,07,10,48,20.40
2014,06,07,10,49,20.30
2014,06,07,10,50,20.30
2014,06,07,10,51,20.30
2014,06,07,10,52,20.40
2014,06,07,10,53,20.40
2014,06,07,10,54,20.40
2014,06,07,10,55,20.50
2014,06,07,10,56,20.50
2014,06,07,10,57,20.60
2014,06,07,10,58,20.60
2014,06,07,10,59,20.60
2014,06,07,11,00,20.70
2014,06,07,11,01,20.70
2014,06,07,11,02,20.80
2014,06,07,11,03,20.90
2014,06,07,11,04,21.00
2014,06,07,11,05,21.00
2014,06,07,11,06,21.00
2014,06,07,11,07,21.10
2014,06,07,11,08,21.10
2014,06,07,11,09,21.10
2014,06,07,11,10,21.00
2014,06,07,11,11,21.00
2014,06,07,11,12,21.00
2014,06,07,11,13,20.90
2014,06,07,11,14,20.80
2014,06,07,11,15,20.80
2014,06,07,11,16,20.80
2014,06,07,11,17,20.90
2014,06,07,11,18,20.90
2014,06,07,11,19,20.90
2014,06,07,11,20,21.00
2014,06,07,11,21,20.90
2014,06,07,11,22,20.90
2014,06,07,11,23,20.80
2014,06,07,11,24,20.80
2014,06,07,11,25,20.80
2014,06,07,11,26,20.80
2014,06,07,11,27,20.70
2014,06,07,11,28,20.60
2014,06,07,11,29,20.60
2014,06,07,11,30,20.60
2014,06,07,11,31,20.70
2014,06,07,11,32,20.70
2014,06,07,11,33,20.80
2014,06,07,11,34,20.80
2014,06,07,11,35,20.80
2014,06,07,11,36,20.70
2014,06,07,11,37,20.60
2014,06,07,11,38,20.60
2014,06,07,11,39,20.60
2014,06,07,11,40,20.60
2014,06,07,11,41,20.60
2014,06,07,11,42,20.60
2014,06,07,11,43,20.60
2014,06,07,11,44,20.50
2014,06,07,11,45,20.50
2014,06,07,11,46,20.50
2014,06,07,11,47,20.50
2014,06,07,11,48,20.50
2014,06,07,11,49,20.50
2014,06,07,11,50,20.50
2014,06,07,11,51,20.60
2014,06,07,11,52,20.60
2014,06,07,11,53,20.60
2014,06,07,11,54,20.60
2014,06,07,11,55,20.70
2014,06,07,11,56,20.70
2014,06,07,11,57,20.80
2014,06,07,11,58,20.80
2014,06,07,11,59,20.80
2014,06,07,12,00,20.90
2014,06,07,12,01,20.90
2014,06,07,12,02,20.90
2014,06,07,12,03,21.00
2014,06,07,12,04,21.10
2014,06,07,12,05,21.10
2014,06,07,12,06,21.20
2014,06,07,12,07,21.20
2014,06,07,12,08,21.20
2014,06,07,12,09,21.20
2014,06,07,12,10,21.30
2014,06,07,12,11,21.30
2014,06,07,12,12,21.30
2014,06,07,12,13,21.30
2014,06,07,12,14,21.40
2014,06,07,12,15,21.40
2014,06,07,12,16,21.30
2014,06,07,12,17,21.20
2014,06,07,12,18,21.10
2014,06,07,12,19,21.00
2014,06,07,12,20,20.90
2014,06,07,12,21,20.90
2014,06,07,12,22,20.90
2014,06,07,12,23,20.90
2014,06,07,12,24,21.00
2014,06,07,12,25,21.00
2014,06,07,12,26,20.90
2014,06,07,12,27,20.90
2014,06,07,12,28,20.90
2014,06,07,12,29,20.90
2014,06,07,12,30,20.90
2014,06,07,12,31,20.90
2014,06,07,12,32,20.90
2014,06,07,12,33,20.90
2014,06,07,12,34,20.90
2014,06,07,12,35,20.90
2014,06,07,12,36,20.90
2014,06,07,12,37,20.80
2014,06,07,12,38,20.70
2014,06,07,12,39,20.70
2014,06,07,12,40,20.60
2014,06,07,12,41,20.60
2014,06,07,12,42,20.70
2014,06,07,12,43,20.80
2014,06,07,12,44,20.80
2014,06,07,12,45,20.80
2014,06,07,12,46,20.90
2014,06,07,12,47,20.90
2014,06,07,12,48,21.00
2014,06,07,12,49,21.00
2014,06,07,12,50,21.10
2014,06,07,12,51,21.10
2014,06,07,12,52,21.10
2014,06,07,12,53,21.10
2014,06,07,12,54,21.10
2014,06,07,12,55,21.10
2014,06,07,12,56,21.10
2014,06,07,12,57,21.10
2014,06,07,12,58,21.10
2014,06,07,12,59,21.10
2014,06,07,13,00,21.10
2014,06,07,13,01,21.10
2014,06,07,13,02,21.10
2014,06,07,13,03,21.00
2014,06,07,13,04,21.00
2014,06,07,13,05,21.10
2014,06,07,13,06,21.10
2014,06,07,13,07,21.10
2014,06,07,13,08,21.10
2014,06,07,13,09,21.10
2014,06,07,13,10,21.10
2014,06,07,13,11,21.10
2014,06,07,13,12,21.10
2014,06,07,13,13,21.20
2014,06,07,13,14,21.20
2014,06,07,13,15,21.30
2014,06,07,13,16,21.30
2014,06,07,13,17,21.30
2014,06,07,13,18,21.30
2014,06,07,13,19,21.30
2014,06,07,13,20,21.30
2014,06,07,13,21,21.30
2014,06,07,13,22,21.40
2014,06,07,13,23,21.50
2014,06,07,13,24,21.50
2014,06,07,13,25,21.60
2014,06,07,13,26,21.70
2014,06,07,13,27,21.70
2014,06,07,13,28,21.60
2014,06,07,13,29,21.60
2014,06,07,13,30,21.60
2014,06,07,13,31,21.50
2014,06,07,13,32,21.50
2014,06,07,13,33,21.50
2014,06,07,13,34,21.40
2014,06,07,13,35,21.40
2014,06,07,13,36,21.40
2014,06,07,13,37,21.40
2014,06,07,13,38,21.30
2014,06,07,13,39,21.20
2014,06,07,13,40,21.20
2014,06,07,13,41,21.20
2014,06,07,13,42,21.20
2014,06,07,13,43,21.20
2014,06,07,13,44,21.20
2014,06,07,13,45,21.30
2014,06,07,13,46,21.30
2014,06,07,13,47,21.30
2014,06,07,13,48,21.30
2014,06,07,13,49,21.40
2014,06,07,13,50,21.40
2014,06,07,13,51,21.40
2014,06,07,13,52,21.40
2014,06,07,13,53,21.40
2014,06,07,13,54,21.40
2014,06,07,13,55,21.40
2014,06,07,13,56,21.40
2014,06,07,13,57,21.40
2014,06,07,13,58,21.50
2014,06,07,13,59,21.40
2014,06,07,14,00,21.40
2014,06,07,14,01,21.40
2014,06,07,14,02,21.40
2014,06,07,14,03,21.40
2014,06,07,14,04,21.40
2014,06,07,14,05,21.40
2014,06,07,14,06,21.40
2014,06,07,14,07,21.40
2014,06,07,14,08,21.40
2014,06,07,14,09,21.50
2014,06,07,14,10,21.50
2014,06,07,14,11,21.60
2014,06,07,14,12,21.70
2014,06,07,14,13,21.80
2014,06,07,14,14,21.90
2014,06,07,14,15,22.00
2014,06,07,14,16,22.00
2014,06,07,14,17,21.90
2014,06,07,14,18,21.90
2014,06,07,14,19,21.90
2014,06,07,14,20,21.90
2014,06,07,14,21,21.90
2014,06,07,14,22,21.90
2014,06,07,14,23,21.90
2014,06,07,14,24,21.90
2014,06,07,14,25,21.90
2014,06,07,14,26,21.90
2014,06,07,14,27,21.90
2014,06,07,14,28,22.00
2014,06,07,14,29,22.00
2014,06,07,14,30,22.10
2014,06,07,14,31,22.10
2014,06,07,14,32,22.10
2014,06,07,14,33,22.00
2014,06,07,14,34,22.00
2014,06,07,14,35,22.00
2014,06,07,14,36,22.00
2014,06,07,14,37,22.00
2014,06,07,14,38,22.00
2014,06,07,14,39,22.00
2014,06,07,14,40,22.00
2014,06,07,14,41,22.00
2014,06,07,14,42,22.00
2014,06,07,14,43,22.00
2014,06,07,14,44,21.90
2014,06,07,14,45,21.90
2014,06,07,14,46,21.90
2014,06,07,14,47,22.00
2014,06,07,14,48,22.00
2014,06,07,14,49,22.10
2014,06,07,14,50,22.20
2014,06,07,14,51,22.20
2014,06,07,14,52,22.30
2014,06,07,14,53,22.30
2014,06,07,14,54,22.30
2014,06,07,14,55,22.20
2014,06,07,14,56,22.20
2014,06,07,14,57,22.20
2014,06,07,14,58,22.30
2014,06,07,14,59,22.30
2014,06,07,15,00,22.30
2014,06,07,15,01,22.30
2014,06,07,15,02,22.30
2014,06,07,15,03,22.30
2014,06,07,15,04,22.30
2014,06,07,15,05,22.30
2014,06,07,15,06,22.20
2014,06,07,15,07,22.10
2014,06,07,15,08,22.00
2014,06,07,15,09,21.90
2014,06,07,15,10,21.80
2014,06,07,15,11,21.80
2014,06,07,15,12,21.90
2014,06,07,15,13,21.90
2014,06,07,15,14,21.90
2014,06,07,15,15,21.90
2014,06,07,15,16,21.90
2014,06,07,15,17,21.90
2014,06,07,15,18,21.80
2014,06,07,15,19,21.80
2014,06,07,15,20,21.80
2014,06,07,15,21,21.80
2014,06,07,15,22,21.80
2014,06,07,15,23,21.80
2014,06,07,15,24,21.70
2014,06,07,15,25,21.70
2014,06,07,15,26,21.60
2014,06,07,15,27,21.60
2014,06,07,15,28,21.60
2014,06,07,15,29,21.60
2014,06,07,15,30,21.60
2014,06,07,15,31,21.60
2014,06,07,15,32,21.70
2014,06,07,15,33,21.70
2014,06,07,15,34,21.80
2014,06,07,15,35,21.80
2014,06,07,15,36,21.80
2014,06,07,15,37,21.80
2014,06,07,15,38,21.80
2014,06,07,15,39,21.70
2014,06,07,15,40,21.50
2014,06,07,15,41,21.40
2014,06,07,15,42,21.30
2014,06,07,15,43,21.30
2014,06,07,15,44,21.30
2014,06,07,15,45,21.30
2014,06,07,15,46,21.30
2014,06,07,15,47,21.20
2014,06,07,15,48,21.30
2014,06,07,15,49,21.30
2014,06,07,15,50,21.30
2014,06,07,15,51,21.40
2014,06,07,15,52,21.30
2014,06,07,15,53,21.30
2014,06,07,15,54,21.30
2014,06,07,15,55,21.30
2014,06,07,15,56,21.30
2014,06,07,15,57,21.30
2014,06,07,15,58,21.30
2014,06,07,15,59,21.30
2014,06,07,16,00,21.30
2014,06,07,16,01,21.40
2014,06,07,16,02,21.40
2014,06,07,16,03,21.40
2014,06,07,16,04,21.50
2014,06,07,16,05,21.40
2014,06,07,16,06,21.40
2014,06,07,16,07,21.50
2014,06,07,16,08,21.50
2014,06,07,16,09,21.60
2014,06,07,16,10,21.60
2014,06,07,16,11,21.60
2014,06,07,16,12,21.60
2014,06,07,16,13,21.60
2014,06,07,16,14,21.60
2014,06,07,16,15,21.50
2014,06,07,16,16,21.40
2014,06,07,16,17,21.30
2014,06,07,16,18,21.30
2014,06,07,16,19,21.20
2014,06,07,16,20,21.10
2014,06,07,16,21,21.00
2014,06,07,16,22,20.90
2014,06,07,16,23,20.80
2014,06,07,16,24,20.70
2014,06,07,16,25,20.60
2014,06,07,16,26,20.50
2014,06,07,16,27,20.50
2014,06,07,16,28,20.40
2014,06,07,16,29,20.40
2014,06,07,16,30,20.40
2014,06,07,16,31,20.40
2014,06,07,16,32,20.40
2014,06,07,16,33,20.40
2014,06,07,16,34,20.40
2014,06,07,16,35,20.40
2014,06,07,16,36,20.40
2014,06,07,16,37,20.30
2014,06,07,16,38,20.20
2014,06,07,16,39,20.20
2014,06,07,16,40,20.10
2014,06,07,16,41,19.90
2014,06,07,16,42,19.80
2014,06,07,16,43,19.70
2014,06,07,16,44,19.70
2014,06,07,16,45,19.70
2014,06,07,16,46,19.70
2014,06,07,16,47,19.70
2014,06,07,16,48,19.70
2014,06,07,16,49,19.80
2014,06,07,16,50,19.80
2014,06,07,16,51,19.80
2014,06,07,16,52,19.80
2014,06,07,16,53,19.80
2014,06,07,16,54,19.80
2014,06,07,16,55,19.80
2014,06,07,16,56,19.80
2014,06,07,16,57,19.90
2014,06,07,16,58,19.90
2014,06,07,16,59,19.90
2014,06,07,17,00,19.90
2014,06,07,17,01,20.00
2014,06,07,17,02,20.00
2014,06,07,17,03,20.10
2014,06,07,17,04,20.10
2014,06,07,17,05,20.10
2014,06,07,17,06,20.10
2014,06,07,17,07,20.10
2014,06,07,17,08,20.20
2014,06,07,17,09,20.20
2014,06,07,17,10,20.20
2014,06,07,17,11,20.30
2014,06,07,17,12,20.30
2014,06,07,17,13,20.20
2014,06,07,17,14,20.10
2014,06,07,17,15,19.90
2014,06,07,17,16,19.80
2014,06,07,17,17,19.70
2014,06,07,17,18,19.60
2014,06,07,17,19,19.50